Delta, CO

9:04 PM MDT on September 24, 2017 (GMT -0600)
Delta

Weather History for KAJZ - December, 2012

Change the Weather History Date:

Sunday, December 23, 2012

  Actual Average (KMTJ) Record (KMTJ)
Temperature  
Mean Temperature 24 °F -  
Max Temperature 35 °F 34 °F 53 °F (2005)
Min Temperature 12 °F 13 °F -9 °F (1998)
Degree Days  
Heating Degree Days 42    
Moisture  
Dew Point 15 °F    
Average Humidity 69    
Maximum Humidity 86    
Minimum Humidity 43    
Precipitation  
Precipitation 0.00 in - - ()
Sea Level Pressure  
Sea Level Pressure 30.10 in    
Wind  
Wind Speed 2 mph (ENE)    
Max Wind Speed 10 mph    
Max Gust Speed -    
Visibility 10 miles    
Events      
Averages and records for this station are not official NWS values.
T = Trace of Precipitation, MM = Missing Value Source: NWS Daily Summary

Daily Weather History Graph

Daily Weather History Graph

Search for Another Location

Airport or City:

Trip Planner

Search our weather history database for the weather conditions in past years. The results will help you decide how hot, cold, wet, or windy it might be!

Date:

Astronomy

Dec. 23, 2012 Rise Set
Actual Time 7:28 AM MST 4:55 PM MST
Civil Twilight 6:58 AM MST 5:25 PM MST
Nautical Twilight 6:24 AM MST 5:58 PM MST
Astronomical Twilight 5:52 AM MST 6:31 PM MST
Moon 1:46 PM MST (12/23) 3:14 AM MST (12/23)
Length of Visible Light 10h 27m
Length of Day
9h 27m
Waxing Gibbous, 82% of the Moon is Illuminated
Dec 23
Waxing Gibbous
Dec 28
Full
Jan 4
Last Quarter
Jan 11
New
Jan 18
First Quarter

Hourly Weather History & Observations

Time (MST) Temp. Windchill Dew Point Humidity Pressure Visibility Wind Dir Wind Speed Gust Speed Precip Events Conditions
12:15 AM 15.3 °F - 10.9 °F 83% 30.12 in 10.0 mi Calm Calm - N/A   Clear
12:35 AM 14.9 °F - 10.4 °F 82% 30.13 in 10.0 mi Calm Calm - N/A   Clear
12:55 AM 14.5 °F - 10.4 °F 84% 30.12 in 10.0 mi Calm Calm - N/A   Clear
1:15 AM 15.6 °F 10.0 °F 11.1 °F 82% 30.11 in 10.0 mi NW 3.5 mph - N/A   Clear
1:35 AM 16.7 °F 9.6 °F 11.7 °F 81% 30.11 in 10.0 mi SSW 4.6 mph - N/A   Clear
1:55 AM 15.8 °F - 11.3 °F 82% 30.11 in 10.0 mi Calm Calm - N/A   Clear
2:15 AM 16.2 °F - 11.3 °F 81% 30.12 in 10.0 mi Calm Calm - N/A   Clear
2:55 AM 14.4 °F - 10.0 °F 83% 30.11 in 10.0 mi Calm Calm - N/A   Clear
3:15 AM 13.8 °F - 9.7 °F 84% 30.11 in 10.0 mi Calm Calm - N/A   Clear
3:35 AM 12.7 °F - 9.1 °F 86% 30.11 in 10.0 mi Calm Calm - N/A   Clear
3:55 AM 13.1 °F - 9.7 °F 86% 30.11 in 10.0 mi Calm Calm - N/A   Clear
4:15 AM 12.9 °F - 9.1 °F 85% 30.12 in 10.0 mi Calm Calm - N/A   Clear
4:35 AM 12.9 °F 5.2 °F 9.3 °F 86% 30.11 in 10.0 mi ENE 4.6 mph - N/A   Clear
4:55 AM 13.1 °F 7.1 °F 9.7 °F 86% 30.11 in 10.0 mi ENE 3.5 mph - N/A   Clear
5:15 AM 14.0 °F 8.2 °F 10.4 °F 86% 30.11 in 10.0 mi ENE 3.5 mph - N/A   Mostly Cloudy
5:35 AM 14.9 °F 9.2 °F 10.9 °F 84% 30.12 in 10.0 mi NE 3.5 mph - N/A   Overcast
5:55 AM 15.8 °F 8.6 °F 11.1 °F 82% 30.12 in 10.0 mi NNE 4.6 mph - N/A   Overcast
6:15 AM 16.3 °F 9.2 °F 11.1 °F 80% 30.13 in 10.0 mi ENE 4.6 mph - N/A   Overcast
6:35 AM 16.5 °F 8.1 °F 10.9 °F 79% 30.13 in 10.0 mi ENE 5.8 mph - N/A   Overcast
6:55 AM 16.3 °F 9.2 °F 10.8 °F 79% 30.14 in 10.0 mi ENE 4.6 mph - N/A   Mostly Cloudy
7:15 AM 16.7 °F - 11.1 °F 79% 30.15 in 10.0 mi Calm Calm - N/A   Scattered Clouds
7:35 AM 17.2 °F - 11.7 °F 79% 30.15 in 10.0 mi Calm Calm - N/A   Mostly Cloudy
7:55 AM 17.6 °F 12.3 °F 11.3 °F 76% 30.15 in 10.0 mi NE 3.5 mph - N/A   Overcast
8:15 AM 18.5 °F - 11.8 °F 75% 30.16 in 10.0 mi Calm Calm - N/A   Overcast
8:35 AM 19.2 °F - 12.2 °F 74% 30.17 in 10.0 mi Calm Calm - N/A   Overcast
9:35 AM 20.5 °F - 12.2 °F 70% 30.19 in 10.0 mi Calm Calm - N/A   Unknown
9:55 AM 21.2 °F - 12.2 °F 68% 30.19 in 10.0 mi Calm Calm - N/A   Clear
10:15 AM 23.0 °F - 12.2 °F 63% 30.19 in 10.0 mi Calm Calm - N/A   Clear
10:35 AM 24.6 °F - 12.6 °F 60% 30.20 in 10.0 mi Calm Calm - N/A   Scattered Clouds
11:15 AM 25.3 °F 21.1 °F 13.6 °F 61% 30.19 in 10.0 mi SE 3.5 mph - N/A   Overcast
11:35 AM 25.3 °F - 13.6 °F 61% 30.18 in 10.0 mi Calm Calm - N/A   Scattered Clouds
11:55 AM 26.6 °F - 13.8 °F 59% 30.17 in 10.0 mi Calm Calm - N/A   Clear
12:15 PM 27.7 °F - 14.2 °F 57% 30.15 in 10.0 mi Calm Calm - N/A   Clear
12:35 PM 29.7 °F 26.1 °F 15.4 °F 55% 30.15 in 10.0 mi West 3.5 mph - N/A   Clear
12:55 PM 31.1 °F 27.7 °F 15.4 °F 52% 30.14 in 10.0 mi West 3.5 mph - N/A   Scattered Clouds
1:15 PM 32.0 °F - 15.6 °F 51% 30.13 in 10.0 mi Calm Calm - N/A   Scattered Clouds
1:35 PM 33.8 °F - 15.6 °F 47% 30.12 in 10.0 mi Calm Calm - N/A   Clear
1:55 PM 34.2 °F - 15.8 °F 47% 30.11 in 10.0 mi Calm Calm - N/A   Clear
2:15 PM 34.7 °F - 16.0 °F 46% 30.11 in 10.0 mi Calm Calm - N/A   Clear
2:35 PM 35.8 °F - 16.9 °F 46% 30.09 in 10.0 mi Calm Calm - N/A   Clear
2:55 PM 35.8 °F 33.0 °F 17.4 °F 47% 30.09 in 10.0 mi SE 3.5 mph - N/A   Clear
3:15 PM 35.6 °F - 15.3 °F 43% 30.08 in 10.0 mi Calm Calm - N/A   Clear
3:35 PM 35.2 °F - 16.2 °F 46% 30.08 in 10.0 mi Calm Calm - N/A   Clear
3:55 PM 35.6 °F - 16.7 °F 46% 30.07 in 10.0 mi Calm Calm - N/A   Clear
4:15 PM 34.7 °F 30.6 °F 19.0 °F 53% 30.06 in 10.0 mi East 4.6 mph - N/A   Clear
4:35 PM 32.9 °F 29.8 °F 18.9 °F 56% 30.05 in 10.0 mi ENE 3.5 mph - N/A   Clear
4:55 PM 32.0 °F - 18.5 °F 58% 30.06 in 10.0 mi Calm Calm - N/A   Clear
5:15 PM 32.4 °F 29.1 °F 19.2 °F 58% 30.05 in 10.0 mi WNW 3.5 mph - N/A   Scattered Clouds
5:35 PM 32.0 °F - 19.4 °F 60% 30.05 in 10.0 mi Calm Calm - N/A   Scattered Clouds
5:55 PM 29.3 °F - 18.5 °F 64% 30.05 in 10.0 mi Calm Calm - N/A   Clear
6:15 PM 27.5 °F - 17.6 °F 66% 30.05 in 10.0 mi Calm Calm - N/A   Clear
6:35 PM 26.8 °F - 17.4 °F 68% 30.05 in 10.0 mi Calm Calm - N/A   Clear
6:55 PM 25.3 °F - 17.6 °F 72% 30.06 in 10.0 mi Calm Calm - N/A   Scattered Clouds
7:15 PM 25.5 °F 21.3 °F 18.3 °F 74% 30.06 in 10.0 mi ENE 3.5 mph - N/A   Mostly Cloudy
7:35 PM 26.6 °F 21.2 °F 18.3 °F 71% 30.07 in 10.0 mi ENE 4.6 mph - N/A   Mostly Cloudy
7:55 PM 27.1 °F 20.7 °F 18.5 °F 70% 30.07 in 10.0 mi NE 5.8 mph - N/A   Overcast
8:15 PM 27.9 °F 22.6 °F 18.9 °F 69% 30.07 in 10.0 mi NE 4.6 mph - N/A   Overcast
8:35 PM 28.2 °F 24.4 °F 19.4 °F 70% 30.07 in 10.0 mi ENE 3.5 mph - N/A   Overcast
8:55 PM 27.5 °F 23.6 °F 19.4 °F 72% 30.07 in 10.0 mi East 3.5 mph - N/A   Overcast
9:15 PM 27.5 °F 23.6 °F 20.1 °F 74% 30.07 in 10.0 mi East 3.5 mph - N/A   Overcast
9:35 PM 28.2 °F 23.1 °F 20.3 °F 72% 30.07 in 10.0 mi East 4.6 mph - N/A   Overcast
9:55 PM 28.4 °F 19.1 °F 20.3 °F 72% 30.06 in 10.0 mi ENE 10.4 mph - N/A   Scattered Clouds
10:15 PM 28.9 °F 20.4 °F 20.3 °F 70% 30.06 in 10.0 mi ENE 9.2 mph - N/A   Clear
10:35 PM 28.9 °F - 20.3 °F 70% 30.05 in 10.0 mi Calm Calm - N/A   Mostly Cloudy
10:55 PM 28.2 °F - 20.8 °F 74% 30.05 in 10.0 mi Calm Calm - N/A   Overcast
11:15 PM 28.0 °F - 20.7 °F 74% 30.04 in 10.0 mi Calm Calm - N/A   Overcast
11:35 PM 28.9 °F 23.9 °F 21.6 °F 74% 30.03 in 10.0 mi NNE 4.6 mph - N/A   Overcast
11:55 PM 31.3 °F 23.3 °F 21.2 °F 66% 30.00 in 10.0 mi ENE 9.2 mph - N/A   Overcast